This demonstration page uses our WeatherBlox Daily Observations layout. Learn more.

41.86663, -103.66717

Hourly Observations for August 3, 2020

Temp ( °F °C ) Dew Point ( °F °C ) Humidity (%) Winds ( mph kmh ) Pressure ( in mb ) Visibility ( mi km ) Precip ( " mm )
12:53 am 00:53 Clear 62 16.7 56 13.3 80 80 ESE 10 17 30.06 1018 10 16.0934 0 0
1:53 am 01:53 Clear 60 15.6 55 12.8 84 84 ESE 9 15 30.05 1018 10 16.0934 0 0
2:53 am 02:53 Clear 59 15 54 12.2 83 83 ESE 9 15 30.04 1017 10 16.0934 0 0
3:53 am 03:53 Clear 59 15 53 11.7 81 81 E 12 19 30.03 1017 10 16.0934 0 0
4:53 am 04:53 Clear 58 14.4 53 11.7 84 84 E 10 17 30.03 1017 10 16.0934 0 0
5:53 am 05:53 Sunny 58 14.4 52 11.1 81 81 E 10 17 30.04 1017 10 16.0934 0 0
6:53 am 06:53 Sunny 60 15.6 52 11.1 75 75 ESE 13 20 30.04 1017 10 16.0934 0 0
7:53 am 07:53 Sunny 64 17.8 54 12.2 70 70 ESE 12 19 30.05 1018 10 16.0934 0 0
8:53 am 08:53 Sunny 71 21.7 54 12.2 55 55 S 16 26 30.04 1017 10 16.0934 0 0
9:00 am 09:00 Sunny 72 22 54 12 53 53 S 15 24 29.95 1014 10 16.0934 0 0
9:53 am 09:53 Sunny 76 24.4 55 12.8 48 48 SSE 13 20 30.04 1017 10 16.0934 0 0
10:53 am 10:53 Sunny 79 26.1 55 12.8 44 44 S 12 19 30.02 1017 10 16.0934 0 0
11:53 am 11:53 Sunny 82 27.8 56 13.3 41 41 SSE 13 20 30 1016 10 16.0934 0 0
12:53 pm 12:53 undefined 85 29.4 56 13.3 37 37 S 14 22 29.97 1015 10 16.0934 0 0
1:53 pm 13:53 Sunny 87 30.6 55 12.8 34 34 SSE 16 26 29.94 1014 10 16.0934 0 0
2:53 pm 14:53 Sunny 89 31.7 54 12.2 30 30 SSE 15 24 29.91 1013 10 16.0934 0 0
3:53 pm 15:53 Sunny 91 32.8 54 12.2 28 28 SE 15 24 29.89 1012 10 16.0934 0 0
4:53 pm 16:53 Sunny 91 32.8 53 11.7 27 27 SSE 15 24 29.88 1012 10 16.0934 0 0
5:53 pm 17:53 Sunny 88 31.1 55 12.8 33 33 undefined N/A 29.87 1012 10 16.0934 0 0
6:53 pm 18:53 Sunny 84 28.9 56 13.3 38 38 SE 16 26 29.89 1012 10 16.0934 0 0
7:53 pm 19:53 Sunny 80 26.7 57 13.9 45 45 SSE 17 28 29.93 1014 10 16.0934 0 0
8:53 pm 20:53 Clear 77 25 57 13.9 50 50 SE 14 22 29.94 1014 10 16.0934 0 0
9:53 pm 21:53 Clear 74 23.3 55 12.8 52 52 ESE 22 35 29.89 1012 10 16.0934 0 0
10:53 pm 22:53 Clear 71 21.7 56 13.3 59 59 ESE 13 20 29.92 1013 10 16.0934 0 0
11:53 pm 23:53 Clear 69 20.6 56 13.3 63 63 E 16 26 29.93 1014 10 16.0934 0 0

Powered by AerisWeather